FW7729 Weather Reports


time (UTC)temp
C
wind
direction
speed
KPH
gust
KPH
rain 1hr
cm
rain 24hr
cm
rain mn
cm
humidity
%
barometer
mb
20260510022734 16 166 0.0 0.0 0.00 0.00 0.00 93 1009.1
20260510022200 16 166 0.0 0.0 0.00 0.00 0.00 93 1009.1
20260510021626 16 166 0.0 0.0 0.00 0.00 0.00 93 1009.1
20260510021052 16 166 0.0 0.0 0.00 0.00 0.00 92 1009.0
20260510020517 16 166 0.0 0.0 0.00 0.00 0.00 92 1009.0
20260510013743 16 166 0.0 0.0 0.00 0.00 0.00 90 1008.8
20260510013209 16 174 0.0 0.0 0.00 0.00 0.00 90 1008.7
20260510012635 16 174 0.0 0.0 0.00 0.00 0.00 89 1008.6
20260510012101 17 174 0.0 0.0 0.00 0.00 0.00 89 1008.4
20260510010957 17 174 0.0 0.0 0.00 0.00 0.00 87 1008.2
20260510005853 17 174 0.0 0.0 0.00 0.00 0.00 86 1008.2
20260510005319 17 174 0.0 0.0 0.00 0.00 0.00 85 1008.1
20260510004215 18 174 0.0 0.0 0.00 0.00 0.00 85 1008.1
20260510003641 18 174 0.0 0.0 0.00 0.00 0.00 84 1008.0
20260510003107 18 174 0.0 0.0 0.00 0.00 0.00 83 1008.1
20260510002533 18 174 0.0 0.0 0.00 0.00 0.00 82 1008.0
20260510001959 19 174 0.0 0.0 0.00 0.00 0.00 82 1007.9
20260510001425 19 174 0.0 0.0 0.00 0.00 0.00 81 1007.8
20260510000850 19 174 0.0 0.0 0.00 0.00 0.00 80 1007.9
20260510000318 20 174 0.0 0.0 0.00 0.00 0.00 79 1007.9
20260509235742 20 174 0.0 0.0 0.00 0.00 0.00 79 1007.7
20260509235208 20 174 0.0 0.0 0.00 0.00 0.00 78 1007.7
20260509234104 20 174 0.0 0.0 0.00 0.00 0.00 77 1007.6
20260509233530 20 174 0.0 0.0 0.00 0.00 0.00 77 1007.5
20260509232955 21 174 0.0 0.0 0.00 0.00 0.00 76 1007.5
20260509232421 21 174 0.0 0.0 0.00 0.00 0.00 76 1007.5
20260509230747 21 174 0.0 0.0 0.00 0.00 0.00 75 1007.4
20260509230213 21 174 0.0 0.0 0.00 0.00 0.00 74 1007.5
20260509225109 21 174 0.0 0.0 0.00 0.00 0.00 72 1007.4
20260509224535 21 174 0.0 0.0 0.00 0.00 0.00 72 1007.4
20260509224001 22 191 0.0 0.0 0.00 0.00 0.00 71 1007.5
20260509223427 22 191 0.0 0.0 0.00 0.00 0.00 70 1007.5
20260509222853 22 191 0.0 0.0 0.00 0.00 0.00 68 1007.4
20260509222319 22 202 0.0 0.0 0.00 0.00 0.00 66 1007.4
20260509221745 22 202 0.0 0.0 0.00 0.00 0.00 66 1007.5
20260509221211 22 202 0.0 0.0 0.00 0.00 0.00 65 1007.6
20260509220637 22 202 0.0 0.0 0.00 0.00 0.00 66 1007.6
20260509215529 22 207 0.0 0.0 0.00 0.00 0.00 66 1007.5
20260509214955 22 195 0.0 0.0 0.00 0.00 0.00 66 1007.5
20260509214421 22 195 0.0 0.0 0.00 0.00 0.00 68 1007.5
20260509213847 21 189 0.0 0.0 0.00 0.00 0.00 71 1007.5
20260509213312 21 189 0.0 0.0 0.00 0.00 0.00 71 1007.4
20260509212739 21 244 0.0 0.0 0.00 0.00 0.00 71 1007.4
20260509211104 22 252 1.6 0.0 0.00 0.00 0.00 68 1007.5
20260509210001 21 31 0.0 0.0 0.00 0.00 0.00 69 1007.3
20260509205426 21 178 3.2 0.0 0.00 0.00 0.00 69 1007.5
20260509204322 21 198 0.0 0.0 0.00 0.00 0.00 71 1007.5
20260509203748 21 166 1.6 0.0 0.00 0.00 0.00 70 1007.5
20260509203214 21 221 1.6 0.0 0.00 0.00 0.00 71 1007.4
20260509202640 21 162 0.0 0.0 0.00 0.00 0.00 71 1007.3
20260509202106 21 168 4.8 0.0 0.00 0.00 0.00 71 1007.3
20260509201532 21 161 0.0 0.0 0.00 0.00 0.00 72 1007.3
20260509200958 21 312 1.6 0.0 0.00 0.00 0.00 72 1007.5
20260509200424 21 220 0.0 0.0 0.00 0.00 0.00 74 1007.6
20260509195850 21 266 3.2 0.0 0.00 0.00 0.00 73 1007.7
20260509195316 20 224 1.6 0.0 0.00 0.00 0.00 73 1007.9
20260509194742 20 231 0.0 0.0 0.00 0.00 0.00 72 1007.9
20260509194208 20 231 3.2 0.0 0.00 0.00 0.00 71 1007.9
20260509193633 20 233 1.6 0.0 0.00 0.00 0.00 72 1007.9
20260509193059 20 183 1.6 0.0 0.00 0.00 0.00 72 1008.0
20260509192525 20 187 3.2 0.0 0.00 0.00 0.00 72 1008.1
20260509190850 20 186 1.6 0.0 0.00 0.00 0.00 74 1008.4
20260509190317 20 184 3.2 0.0 0.00 0.00 0.00 74 1008.5
20260509185213 20 171 1.6 0.0 0.00 0.00 0.00 75 1008.3
20260509184108 20 183 0.0 0.0 0.00 0.00 0.00 76 1008.5
20260509183534 20 177 1.6 0.0 0.00 0.00 0.00 74 1008.4
20260509180800 19 274 0.0 0.0 0.00 0.00 0.00 77 1009.1
20260509180226 19 274 0.0 0.0 0.00 0.00 0.00 76 1009.3
20260509175122 19 183 0.0 0.0 0.00 0.00 0.00 76 1009.3
20260509174548 19 172 0.0 0.0 0.00 0.00 0.00 76 1009.4
20260509174014 19 172 0.0 0.0 0.00 0.00 0.00 74 1009.5
20260509173440 19 172 0.0 0.0 0.00 0.00 0.00 75 1009.5
20260509172906 20 167 1.6 0.0 0.00 0.00 0.00 74 1009.4
20260509172332 20 132 0.0 0.0 0.00 0.00 0.00 74 1009.4
20260509171758 20 208 1.6 0.0 0.00 0.00 0.00 74 1009.5
20260509171224 20 272 0.0 0.0 0.00 0.00 0.00 75 1009.6
20260509170650 19 193 1.6 0.0 0.00 0.00 0.00 76 1009.5
20260509165546 18 185 0.0 0.0 0.00 0.00 0.00 77 1009.7
20260509165012 18 152 1.6 0.0 0.00 0.00 0.00 75 1009.6
20260509164438 18 184 1.6 0.0 0.00 0.00 0.00 76 1009.6
20260509163333 18 202 1.6 0.0 0.00 0.00 0.00 76 1009.8
20260509162759 18 181 1.6 0.0 0.00 0.00 0.00 77 1009.8
20260509162225 18 168 3.2 0.0 0.00 0.00 0.00 76 1009.7
20260509161651 18 177 1.6 0.0 0.00 0.00 0.00 76 1009.7
20260509160547 18 264 1.6 0.0 0.00 0.00 0.00 75 1009.7
20260509160013 18 276 3.2 0.0 0.00 0.00 0.00 77 1009.7
20260509155439 18 221 0.0 0.0 0.00 0.00 0.00 76 1009.6
20260509154905 18 166 0.0 0.0 0.00 0.00 0.00 78 1009.8
20260509154331 18 185 0.0 0.0 0.00 0.00 0.00 77 1009.9
20260509153227 18 179 4.8 0.0 0.00 0.00 0.00 75 1009.9
20260509152653 18 91 0.0 0.0 0.00 0.00 0.00 76 1009.9
20260509152119 18 251 3.2 0.0 0.00 0.00 0.00 77 1009.9
20260509145914 17 196 1.6 0.0 0.00 0.00 0.00 77 1010.1
20260509144240 16 164 0.0 0.0 0.00 0.00 0.00 79 1010.3
20260509143706 16 192 1.6 0.0 0.00 0.00 0.00 80 1010.4
20260509143132 16 280 0.0 0.0 0.00 0.00 0.00 81 1010.5
20260509142028 15 264 0.0 0.0 0.00 0.00 0.00 81 1010.7
20260509135824 14 172 0.0 0.0 0.00 0.00 0.00 81 1010.7
20260509134720 14 172 0.0 0.0 0.00 0.00 0.00 82 1010.6
20260509134146 14 172 0.0 0.0 0.00 0.00 0.00 82 1010.7
20260509133042 14 172 0.0 0.0 0.00 0.00 0.00 81 1010.8
20260509132508 14 172 0.0 0.0 0.00 0.00 0.00 82 1010.9
20260509131934 14 172 0.0 0.0 0.00 0.00 0.00 81 1010.8
20260509131400 14 172 0.0 0.0 0.00 0.00 0.00 81 1010.9
20260509130826 13 171 0.0 0.0 0.00 0.00 0.00 81 1010.9
20260509130252 13 171 0.0 0.0 0.00 0.00 0.00 81 1010.8
20260509125717 13 171 1.6 0.0 0.00 0.00 0.00 81 1010.8
20260509125143 13 160 0.0 0.0 0.00 0.00 0.00 80 1010.7
20260509124609 13 156 1.6 0.0 0.00 0.00 0.00 80 1010.7
20260509124035 13 199 3.2 0.0 0.00 0.00 0.00 80 1010.7
20260509123501 13 169 1.6 0.0 0.00 0.00 0.00 79 1010.7
20260509122927 13 164 3.2 0.0 0.00 0.00 0.00 79 1010.7
20260509121823 13 157 0.0 0.0 0.00 0.00 0.00 79 1010.7
20260509121249 13 170 1.6 0.0 0.00 0.00 0.00 78 1010.7
20260509120715 13 145 1.6 0.0 0.00 0.00 0.00 78 1010.7
20260509120141 13 176 3.2 0.0 0.00 0.00 0.00 78 1010.6
20260509115607 13 170 3.2 0.0 0.00 0.00 0.00 78 1010.6
20260509114503 13 165 1.6 0.0 0.00 0.00 0.00 77 1010.7
20260509113359 13 162 3.2 0.0 0.00 0.00 0.00 76 1010.7
20260509111724 13 166 1.6 0.0 0.00 0.00 0.00 74 1010.3
20260509111150 13 168 1.6 0.0 0.00 0.00 0.00 73 1010.4
20260509105516 14 168 1.6 0.0 0.00 0.00 0.00 71 1010.3
20260509104942 14 165 1.6 0.0 0.00 0.00 0.00 70 1010.3
20260509103838 14 166 1.6 0.0 0.00 0.00 0.00 69 1010.2
20260509103304 14 161 0.0 0.0 0.00 0.00 0.00 70 1010.2
20260509102200 14 161 0.0 0.0 0.00 0.00 0.00 69 1010.2
20260509100526 14 216 0.0 0.0 0.00 0.00 0.00 70 1010.2
20260509095952 14 216 0.0 0.0 0.00 0.00 0.00 69 1010.1
20260509094848 14 222 1.6 0.0 0.00 0.00 0.00 70 1009.9
20260509094314 14 222 0.0 0.0 0.00 0.00 0.00 70 1010.0
20260509093740 14 222 0.0 0.0 0.00 0.00 0.00 70 1010.0
20260509093205 14 222 0.0 0.0 0.00 0.00 0.00 70 1010.1
20260509092632 13 231 0.0 0.0 0.00 0.00 0.00 70 1010.1
20260509092057 13 231 0.0 0.0 0.00 0.00 0.00 71 1010.2
20260509091523 13 231 0.0 0.0 0.00 0.00 0.00 71 1010.2
20260509090949 13 228 0.0 0.0 0.00 0.00 0.00 72 1010.3
20260509090415 13 206 0.0 0.0 0.00 0.00 0.00 72 1010.3
20260509083641 13 142 0.0 0.0 0.00 0.00 0.00 72 1010.5
20260509082537 13 142 0.0 0.0 0.00 0.00 0.00 72 1010.5
20260509082003 13 173 1.6 0.0 0.00 0.00 0.00 72 1010.5
20260509080859 13 166 1.6 0.0 0.00 0.00 0.00 72 1010.8
20260509080325 13 191 1.6 0.0 0.00 0.00 0.00 72 1010.8
20260509075751 13 172 3.2 0.0 0.00 0.00 0.00 71 1010.9
20260509074117 13 149 1.6 0.0 0.00 0.00 0.00 72 1011.1
20260509073543 13 183 1.6 0.0 0.00 0.00 0.00 72 1011.0
20260509073009 13 181 3.2 0.0 0.00 0.00 0.00 71 1011.0
20260509072435 13 184 3.2 0.0 0.00 0.00 0.00 71 1011.0
20260509071331 13 177 1.6 0.0 0.00 0.00 0.00 71 1011.0
20260509070757 13 166 3.2 0.0 0.00 0.00 0.00 70 1011.0
20260509065652 13 180 3.2 0.0 0.00 0.00 0.00 70 1011.0
20260509065118 13 166 3.2 0.0 0.00 0.00 0.00 69 1011.0
20260509063444 14 157 3.2 0.0 0.00 0.00 0.00 68 1011.2
20260509062340 14 185 3.2 0.0 0.00 0.00 0.00 68 1011.2
20260509061806 14 168 1.6 0.0 0.00 0.00 0.00 68 1011.2
20260509055032 14 183 1.6 0.0 0.00 0.00 0.00 68 1011.4
20260509054458 14 170 3.2 0.0 0.00 0.00 0.00 67 1011.4
20260509053924 14 164 1.6 0.0 0.00 0.00 0.00 67 1011.3
20260509053350 14 162 3.2 0.0 0.00 0.00 0.00 67 1011.4
20260509052816 14 183 1.6 0.0 0.00 0.00 0.00 67 1011.4
20260509052242 14 163 1.6 0.0 0.00 0.00 0.00 66 1011.5
20260509050037 15 158 1.6 0.0 0.00 0.00 0.00 65 1011.4
20260509045503 15 158 1.6 0.0 0.00 0.00 0.00 64 1011.3
20260509044929 15 158 1.6 0.0 0.00 0.00 0.00 64 1011.3
20260509044355 15 166 1.6 0.0 0.00 0.00 0.00 64 1011.4
20260509043821 15 175 1.6 0.0 0.00 0.00 0.00 64 1011.3
20260509043247 15 176 1.6 0.0 0.00 0.00 0.00 64 1011.4
20260509042713 15 191 0.0 0.0 0.00 0.00 0.00 64 1011.5
20260509042139 15 176 1.6 0.0 0.00 0.00 0.00 64 1011.6
20260509041035 15 176 1.6 0.0 0.00 0.00 0.00 64 1011.6
20260509035931 15 167 1.6 0.0 0.00 0.00 0.00 65 1011.5
20260509034257 15 160 1.6 0.0 0.00 0.00 0.00 65 1011.7
20260509033152 15 152 1.6 0.0 0.00 0.00 0.00 66 1011.7
20260509031518 15 169 3.2 0.0 0.00 0.00 0.00 66 1011.8
20260509030944 15 170 1.6 0.0 0.00 0.00 0.00 66 1011.8
20260509030410 15 176 1.6 0.0 0.00 0.00 0.00 66 1012.0
20260509025307 15 176 1.6 0.0 0.00 0.00 0.00 65 1012.1
20260509024732 15 177 0.0 0.0 0.00 0.00 0.00 66 1012.0